Total_Precipitation_Accumulation
1.38 1.80 1.99 2.11 2.41 2.62 2.81 2.81 2.96 3.24 3.46 3.83 3.80 3.97 4.37 4.71 4.83 4.96 4.96 4.84 4.71 4.65 4.49 4.38 4.40 4.23 4.07 3.88 3.75 3.63 3.53 3.21 2.99 2.86 2.49 2.00 1.72 1.60 1.52 1.51 1.50 1.45 1.48
1.29 1.74 1.98 2.31 2.54 2.68 2.93 3.06 3.17 3.55 4.04 4.57 5.09 5.46 5.79 5.76 5.84 5.81 5.69 5.38 5.17 5.00 4.79 4.74 4.60 4.36 4.19 3.97 3.76 3.63 3.53 3.25 3.08 3.06 2.97 2.35 1.88 1.48 1.19 1.24 1.28 1.29 1.36
1.38 1.63 1.89 2.19 2.47 2.70 2.96 3.15 3.44 4.01 4.83 5.32 5.78 6.31 6.61 6.36 6.09 5.81 5.72 5.62 5.53 5.39 5.18 5.06 4.75 4.50 4.23 3.92 3.64 3.47 3.38 3.28 3.18 3.04 3.11 2.68 2.14 1.69 1.34 1.15 1.08 1.16 1.29
1.42 1.63 1.85 2.11 2.43 2.78 2.91 3.11 3.65 4.33 4.98 5.51 6.12 6.70 6.97 7.04 6.86 6.30 5.79 5.38 5.07 4.81 4.65 4.59 4.39 4.13 3.83 3.61 3.35 3.19 3.09 3.19 3.04 2.93 2.76 2.56 2.27 2.02 1.66 1.32 1.16 1.14 1.19
1.38 1.55 1.74 1.93 2.09 2.43 2.88 3.22 3.77 4.42 5.05 5.76 6.48 6.90 7.17 7.20 6.85 6.06 5.27 4.73 4.41 4.11 3.84 3.74 3.62 3.44 3.22 3.03 2.94 2.90 2.80 2.76 2.66 2.53 2.46 2.40 2.29 2.04 1.79 1.51 1.28 1.22 1.20
1.27 1.32 1.52 1.69 1.98 2.30 2.67 3.15 3.47 4.06 4.72 5.31 5.86 6.03 6.22 6.18 5.79 5.37 4.89 4.47 3.94 3.45 3.07 2.90 2.77 2.64 2.52 2.48 2.47 2.47 2.41 2.38 2.36 2.32 2.23 2.17 2.15 2.02 1.89 1.64 1.41 1.39 1.30
1.23 1.43 1.70 1.67 1.92 2.22 2.59 3.01 3.38 3.76 4.26 4.76 5.23 5.47 5.64 5.54 5.06 4.59 4.16 3.72 3.22 2.82 2.50 2.32 2.25 2.15 2.08 2.07 2.12 2.15 2.09 2.04 2.06 2.05 2.00 1.98 1.95 1.90 1.88 1.91 1.76 1.48 1.24
1.28 1.37 1.52 1.60 1.84 2.07 2.34 2.73 3.05 3.41 3.64 3.86 4.19 4.43 4.58 4.47 4.14 3.64 3.16 2.85 2.57 2.28 2.09 1.94 1.84 1.74 1.65 1.63 1.70 1.78 1.82 1.77 1.82 1.84 1.89 1.88 1.81 1.77 1.73 1.78 1.85 1.78 1.55
1.16 1.24 1.36 1.50 1.69 1.98 2.34 2.61 2.74 2.94 3.13 3.31 3.35 3.36 3.45 3.35 3.09 2.79 2.48 2.20 1.94 1.71 1.58 1.50 1.41 1.35 1.32 1.34 1.43 1.48 1.44 1.45 1.52 1.61 1.71 1.76 1.79 1.81 1.75 1.75 1.81 1.88 1.82
1.18 1.19 1.27 1.39 1.50 1.58 1.92 2.25 2.31 2.43 2.52 2.56 2.59 2.55 2.58 2.45 2.35 2.20 1.98 1.72 1.56 1.39 1.29 1.21 1.16 1.14 1.11 1.13 1.13 1.18 1.19 1.17 1.22 1.35 1.48 1.58 1.67 1.79 1.82 1.87 1.88 1.89 1.89
1.33 1.28 1.28 1.28 1.37 1.45 1.60 1.86 2.06 2.08 2.12 2.23 2.18 2.05 2.07 2.05 2.01 1.90 1.76 1.62 1.55 1.43 1.29 1.15 1.12 1.09 1.04 0.99 0.99 1.00 1.00 1.05 1.10 1.15 1.26 1.36 1.41 1.52 1.60 1.66 1.68 1.75 1.79
1.29 1.24 1.19 1.12 1.17 1.32 1.42 1.55 1.75 1.81 1.83 1.87 1.90 1.93 1.91 1.85 1.78 1.61 1.48 1.36 1.22 1.11 1.04 0.97 0.97 0.94 0.89 0.88 0.85 0.81 0.81 0.83 0.87 0.93 1.02 1.10 1.13 1.22 1.25 1.34 1.41 1.46 1.52
1.41 1.31 1.20 1.12 1.14 1.24 1.29 1.35 1.49 1.68 1.71 1.66 1.63 1.73 1.72 1.60 1.49 1.39 1.32 1.21 1.08 1.02 1.00 0.94 0.88 0.85 0.81 0.76 0.72 0.70 0.67 0.64 0.67 0.73 0.80 0.87 0.91 0.94 0.96 1.02 1.08 1.17 1.27
1.48 1.30 1.24 1.19 1.20 1.25 1.25 1.29 1.38 1.51 1.61 1.62 1.64 1.62 1.56 1.45 1.39 1.26 1.08 0.99 0.91 0.95 1.00 0.91 0.83 0.75 0.71 0.66 0.67 0.70 0.67 0.62 0.60 0.62 0.66 0.70 0.71 0.70 0.73 0.76 0.83 0.94 1.14
1.39 1.25 1.23 1.30 1.27 1.23 1.21 1.21 1.32 1.37 1.56 1.62 1.56 1.48 1.42 1.37 1.32 1.23 1.11 0.99 0.89 0.83 0.84 0.80 0.76 0.71 0.63 0.59 0.61 0.62 0.61 0.59 0.54 0.52 0.52 0.52 0.54 0.56 0.57 0.57 0.67 0.82 1.03
1.28 1.20 1.20 1.28 1.24 1.20 1.14 1.08 1.16 1.22 1.35 1.47 1.42 1.31 1.26 1.30 1.24 1.20 1.12 1.03 0.92 0.82 0.80 0.77 0.72 0.66 0.56 0.55 0.53 0.48 0.51 0.53 0.53 0.50 0.43 0.40 0.40 0.43 0.45 0.48 0.55 0.67 0.79
1.46 1.47 1.49 1.47 1.36 1.23 1.14 1.12 1.18 1.25 1.30 1.37 1.30 1.29 1.26 1.21 1.17 1.04 0.98 0.99 0.96 0.81 0.71 0.67 0.62 0.60 0.56 0.50 0.43 0.43 0.49 0.54 0.55 0.53 0.52 0.43 0.35 0.42 0.46 0.47 0.52 0.55 0.59
1.76 1.77 1.71 1.56 1.43 1.30 1.25 1.21 1.17 1.25 1.33 1.31 1.24 1.17 1.16 1.11 1.06 1.02 0.95 0.93 0.90 0.79 0.73 0.69 0.63 0.57 0.52 0.49 0.47 0.46 0.45 0.53 0.54 0.51 0.52 0.53 0.52 0.47 0.46 0.45 0.49 0.54 0.61
1.74 1.64 1.56 1.47 1.39 1.28 1.22 1.14 1.12 1.11 1.14 1.12 1.08 1.00 1.01 1.06 1.07 1.03 1.01 0.95 0.86 0.77 0.70 0.67 0.61 0.59 0.53 0.48 0.45 0.46 0.48 0.49 0.45 0.41 0.41 0.42 0.45 0.45 0.46 0.47 0.54 0.57 0.62
1.41 1.42 1.39 1.30 1.24 1.16 1.05 0.98 1.00 1.01 1.00 1.00 1.00 0.90 0.89 0.95 1.01 0.99 0.94 0.83 0.75 0.72 0.62 0.59 0.60 0.59 0.57 0.47 0.41 0.41 0.41 0.43 0.40 0.38 0.38 0.38 0.35 0.35 0.35 0.41 0.56 0.67 0.64
1.22 1.22 1.29 1.28 1.15 0.96 0.89 0.92 0.91 0.91 0.82 0.81 0.88 0.90 0.88 0.87 0.86 0.86 0.87 0.78 0.68 0.66 0.63 0.62 0.62 0.60 0.54 0.45 0.39 0.39 0.38 0.38 0.40 0.43 0.43 0.40 0.32 0.28 0.29 0.36 0.49 0.55 0.53
1.08 1.06 1.13 1.08 0.95 0.84 0.86 0.90 0.87 0.78 0.74 0.81 0.91 0.90 0.86 0.77 0.75 0.85 0.89 0.79 0.68 0.65 0.64 0.64 0.63 0.57 0.55 0.48 0.43 0.41 0.38 0.37 0.38 0.40 0.39 0.35 0.32 0.27 0.29 0.31 0.38 0.41 0.50
0.93 0.92 0.93 0.91 0.89 0.86 0.89 0.90 0.83 0.74 0.77 0.84 0.88 0.87 0.81 0.77 0.77 0.80 0.82 0.77 0.70 0.62 0.59 0.59 0.59 0.53 0.47 0.43 0.39 0.37 0.35 0.34 0.34 0.34 0.33 0.33 0.34 0.35 0.41 0.42 0.41 0.48 0.65
0.81 0.79 0.81 0.80 0.81 0.78 0.77 0.76 0.68 0.67 0.77 0.85 0.83 0.82 0.83 0.82 0.76 0.70 0.66 0.64 0.61 0.55 0.51 0.51 0.50 0.44 0.41 0.35 0.28 0.30 0.31 0.31 0.33 0.34 0.38 0.47 0.52 0.53 0.54 0.58 0.64 0.68 0.71
0.77 0.77 0.79 0.78 0.73 0.70 0.65 0.63 0.64 0.69 0.78 0.78 0.72 0.73 0.77 0.76 0.70 0.59 0.51 0.48 0.42 0.34 0.33 0.34 0.32 0.32 0.29 0.25 0.26 0.28 0.31 0.27 0.27 0.32 0.46 0.64 0.69 0.68 0.65 0.63 0.64 0.68 0.66
0.69 0.72 0.69 0.69 0.67 0.61 0.59 0.60 0.62 0.62 0.70 0.69 0.64 0.61 0.65 0.64 0.56 0.50 0.45 0.39 0.29 0.24 0.19 0.17 0.18 0.19 0.21 0.20 0.19 0.23 0.26 0.24 0.28 0.36 0.57 0.68 0.70 0.71 0.63 0.59 0.56 0.55 0.56